Погода в Выборе

Россия / Псковская область     57°13′38″N   29°09′44″E
темп.,
°C
ветер,
м/с
пор.,
м/с
влажн.,
%
обл.,
%
осадки,
мм/ч
давл.,
гПа
погр.,
м
13 апреля, вт
вт1300:00+8юв3975100 0.0 1021204
03:00+6юв2686100 0.0 1020138
06:00+6юв22943 0.0 102024
09:00+10ююв24745 0.0 1020273
12:00+15ююз235121 0.0 1019956
15:00+17ю2345100 0.0 10191696
18:00+16зсз0156100 0.0 1017113
21:00+9ссз4887100 0.0 1018276
14 апреля, ср
ср1400:00+7ссз4893100 2.6 1017299
03:00+5с3793100 6.5 1017342
06:00+3с4993100 2.9 1017376
09:00+2с4993100 5.3 1018410
12:00+2с3991100 1.3 1020448
15:00+2с41089100 2.0 1020436
18:00+2с41190100 0.5 1020477
21:00+3ссв4128798 0.6 1021533
15 апреля, чт
чт1500:00+3ссв41187100 0.0 1021495
03:00+3св51380100 0.1 1021506
06:00+3св51478100 0.0 1021506
09:00+4св51483100 0.3 1022598
12:00+4св51388100 1.4 1022596
15:00+5св51488100 3.2 1022599
18:00+7св51383100 0.4 1022781
21:00
16 апреля, пт
пт1600:00+5св5138369 0.0 1023634
03:00+4св51388100 0.1 1023564
06:00+4св51389100 0.8 1023493
09:00+5св51385100 0.8 1024502
12:00+9всв6107199 0.0 1024748
15:00+12всв696093 0.0 10241104
18:00+11всв5106082 0.0 10241046
21:00+7всв5135724 0.0 1027617
17 апреля, сб
сб1700:00+6всв5146421 0.0 1026542
03:00+4всв412735 0.0 1027427
06:00+3всв513795 0.0 1029399
09:00+6всв511655 0.0 1029526
12:00+11всв68485 0.0 10301043
15:00+12всв584055 0.0 10301360
18:00+12всв48476 0.0 10301303
21:00+6св3107153 0.0 1031208